User: anonymous
Location: The Jewett Observatory
(46.7288°N, 117.1525°W)
Time: 07:36:32
(UTC-07:00)
Language:

Cosmos 1633 - Orbit

View from above orbital plane
View from above orbital plane
View from above satellite
View from above satellite

Ground track
Ground track

The orbit data is extracted from the following two-line orbital elements,

1 15592U 85020A   14204.93134872  .00001113  00000-0  51608-4 0  5025
2 15592 082.5425 294.9109 0016056 304.3439 105.6188 15.18924545602863
Epoch (UTC): 23 July 2014 22:21:08
Eccentricity: 0.0016056
inclination: 82.5425°
perigee height: 498 km
apogee height: 520 km
right ascension of ascending node: 294.9109°
argument of perigee: 304.3439°
revolutions per day: 15.18924545
mean anomaly at epoch: 105.6188°
orbit number at epoch: 60286

The dashed part of the orbit path shows where the satellite is in the earth's shadow,  

DLR